Location: Kailua
(21.4020°N, 157.7390°W)
Time: 03:20:07
(UTC-10:00)

Cosmos 2221 Rocket - Visible Passes

Search period start: 24 January 2017 00:00
Search period end: 03 February 2017 00:00
Orbit: 621 x 648 km, 82.5° (Epoch: 23 January)

Date Brightness Start Highest point End Pass type
(mag) Time Alt. Az. Time Alt. Az. Time Alt. Az.
28 Jan 6.2 20:29:32 11° S 20:29:32 11° S 20:29:46 10° S visible
29 Jan 5.0 19:06:25 10° NE 19:09:23 17° E 19:12:20 10° ESE visible
29 Jan 5.8 20:43:46 10° NW 20:47:25 24° W 20:51:02 10° SW visible
30 Jan 4.0 19:27:25 10° NNE 19:31:43 40° E 19:35:58 10° SSE visible
31 Jan 3.7 19:49:23 10° N 19:53:56 79° W 19:58:26 10° S visible
01 Feb 5.5 20:12:04 10° NNW 20:16:03 31° W 20:20:00 10° SSW visible
02 Feb 4.3 18:56:15 10° NNE 19:00:17 31° E 19:04:17 10° SE visible
02 Feb 6.8 20:36:06 10° WNW 20:38:05 13° W 20:40:03 10° WSW visible
